Flag for Germany Weather past 2 weeks in Zerbst/Anhalt, Saxony-Anhalt, Germany

Now
61 °F

Haze.


Feels Like: 61 °F
Forecast: 54 / 75 °F
Wind: 2 mph from Southwest

Location: Magdeburg

Current Time: Aug 29, 2015 at 1:01:28 AM

Latest Report: Aug 28, 2015 at 11:00 PM


Visibility: 9 mi

Pressure: 30.15 "Hg

Humidity: 89%

Dew point: 58 °F

Location of Zerbst/AnhaltLocation

Historic Weather in Zerbst/Anhalt — Graph

°F

Zerbst/Anhalt temperature yesterday

Maximum temperature yesterday: 69 °F (at 4:00 PM)
Minimum temperature yesterday: 57 °F (at 7:00 AM)
Average temperature yesterday: 62 °F

Past Weeks' High & Low Weather Summary

 TemperatureHumidityPressure
High94 °F (Aug 14, 6:00 PM)100% (Aug 16, 4:00 AM)30.30 "Hg (Aug 16, 4:00 AM)
Low51 °F (Aug 23, 7:00 AM)30% (Aug 22, 4:00 PM)29.65 "Hg (Aug 14, 7:00 PM)
Average67 °F76%29.95 "Hg
* Reported Midnight between Aug 13 and Aug 14 — Aug 28 11:00 PM, Zerbst/Anhalt, Weather by CustomWeather, © 2015

Note: Actual official high and low records may vary slightly from our data, if they occured in-between our weather recording intervals... More about our weather records

Advertising

Zerbst/Anhalt weather history for previous 24 hours

 ConditionsComfort  
Time TempWeatherWind HumidityBarometerVisibility
11:00 PM
Fri, Aug 28
61 °FHaze.2 mph89%30.15 "Hg9 mi
10:00 PM60 °FHaze.1 mph91%30.14 "Hg14 mi
9:00 PM64 °FOvercast.1 mph78%30.13 "Hg22 mi
8:00 PM65 °FOvercast.1 mph75%30.11 "Hg22 mi
7:00 PM66 °FOvercast.1 mph70%30.10 "Hg28 mi
6:00 PM67 °FOvercast.2 mph66%30.09 "HgN/A
4:00 PM69 °FPartly sunny.1 mph63%30.07 "Hg37 mi
3:00 PM67 °FPartly sunny.1 mph64%30.07 "Hg37 mi
2:00 PM67 °FPartly sunny.1 mph65%30.06 "Hg37 mi
1:00 PM63 °FPartly sunny.2 mph74%30.06 "Hg37 mi
12:00 PM63 °FPartly sunny.2 mph72%30.05 "Hg25 mi
10:00 AM61 °FOvercast.2 mph82%30.02 "Hg25 mi
9:00 AM59 °FPartly sunny.2 mph90%29.99 "Hg25 mi
8:00 AM57 °FOvercast.1 mph94%29.97 "Hg25 mi
7:00 AM57 °FLow clouds.1 mph96%29.95 "Hg19 mi
5:00 AM57 °FLight rain. Low clouds.2 mph97%29.93 "Hg5 mi
4:00 AM58 °FLight rain. Overcast.2 mph96%29.90 "Hg6 mi
3:00 AM61 °FRain. Low clouds.1 mph99%29.87 "Hg1 mi
2:00 AM61 °FLight freezing rain. Low clouds.1 mph98%29.85 "Hg4 mi
1:00 AM61 °FLight rain. Overcast.1 mph98%29.86 "Hg3 mi
Weather by CustomWeather, © 2015

See weather overviewHow to use our weather pages